User: anonymous   Login
Location: Unspecified
(0.0000°N, 0.0000°E)
Time: 06:43:24
(UTC+00:00)
Language:

NAVSTAR 64 (USA 206) - Orbit

View from above orbital plane
View from above orbital plane
View from above satellite
View from above satellite

Ground track
Ground track

The orbit data is extracted from the following two-line orbital elements,

1 35752U 09043A   17207.58522976 +.00000010 +00000-0 +00000-0 0  9990
2 35752 054.2600 157.9212 0049909 029.8298 131.3533 02.00549187058229
Epoch (UTC): 26 July 2017 14:02:43
Eccentricity: 0.0049909
inclination: 54.2600°
perigee height: 20051 km
apogee height: 20316 km
right ascension of ascending node: 157.9212°
argument of perigee: 29.8298°
revolutions per day: 2.00549187
mean anomaly at epoch: 131.3533°
orbit number at epoch: 5822

The dashed part of the orbit path shows where the satellite is in the earth's shadow,  

DLR